,,PA_Meas_PMT16A,,PR_Meas_QMR101_102,,RH_Meas_QMH101,,SR_Meas_QMS101,,TA_Meas_QMH101,,GenWind,,GenWind,
time,status,PA,status,PR,status,RH,status,SR,status,TA,status,DirAvg,status,SpdAvg,
2013-11-23, 00:00:05,VALID,916.782,VALID,0,VALID,96.7107,VALID,0,VALID,19.7028,VALID,323,VALID,0,
2013-11-23, 00:01:05,VALID,916.726,VALID,0,VALID,96.7259,VALID,0,VALID,19.7028,VALID,323,VALID,0,
2013-11-23, 00:02:05,VALID,916.696,VALID,0,VALID,96.6954,VALID,0,VALID,19.6833,VALID,323,VALID,0,
2013-11-23, 00:03:05,VALID,916.66,VALID,0,VALID,96.703,VALID,0,VALID,19.6833,VALID,277,VALID,0,
2013-11-23, 00:04:05,VALID,916.628,VALID,0,VALID,96.6954,VALID,0,VALID,19.6638,VALID,274,VALID,0,
2013-11-23, 00:05:05,VALID,916.594,VALID,0,VALID,96.703,VALID,0,VALID,19.6653,VALID,274,VALID,0,
2013-11-23, 00:06:05,VALID,916.58,VALID,0,VALID,96.6725,VALID,0,VALID,19.6038,VALID,246,VALID,0,
2013-11-23, 00:07:05,VALID,916.535,VALID,0,VALID,96.6878,VALID,0,VALID,19.6248,VALID,246,VALID,0,
2013-11-23, 00:08:04,VALID,916.535,VALID,0,VALID,96.703,VALID,0,VALID,19.5858,VALID,213,VALID,0,
2013-11-23, 00:09:04,VALID,916.544,VALID,0,VALID,96.6725,VALID,0.107441,VALID,19.6053,VALID,226,VALID,0,
2013-11-23, 00:10:04,VALID,916.541,VALID,0,VALID,96.6878,VALID,0,VALID,19.6848,VALID,205,VALID,0,
2013-11-23, 00:11:04,VALID,916.544,VALID,0,VALID,96.7107,VALID,0,VALID,19.6638,VALID,225,VALID,0,
2013-11-23, 00:12:04,VALID,916.533,VALID,0,VALID,96.7107,VALID,0,VALID,19.6248,VALID,247,VALID,0,
2013-11-23, 00:13:04,VALID,916.527,VALID,0,VALID,96.7259,VALID,0,VALID,19.6653,VALID,256,VALID,0,
2013-11-23, 00:14:04,VALID,916.547,VALID,0,VALID,96.7259,VALID,0,VALID,19.6848,VALID,258,VALID,0,
2013-11-23, 00:15:04,VALID,916.536,VALID,0,VALID,96.7259,VALID,0,VALID,19.7043,VALID,34,VALID,0,
2013-11-23, 00:16:04,VALID,916.53,VALID,0,VALID,96.7488,VALID,0,VALID,19.7238,VALID,33,VALID,0,
2013-11-23, 00:17:04,VALID,916.452,VALID,0.2,VALID,96.7183,VALID,0,VALID,19.7223,VALID,32,VALID,0,
2013-11-23, 00:18:04,VALID,916.426,VALID,0,VALID,96.7335,VALID,0,VALID,19.6833,VALID,33,VALID,0,
2013-11-23, 00:19:04,VALID,916.404,VALID,0,VALID,96.7335,VALID,0,VALID,19.6653,VALID,34,VALID,0,
2013-11-23, 00:20:04,VALID,916.426,VALID,0,VALID,96.6878,VALID,0,VALID,19.6653,VALID,34,VALID,0,
2013-11-23, 00:21:04,VALID,916.454,VALID,0,VALID,96.6878,VALID,0,VALID,19.6443,VALID,34,VALID,0,
2013-11-23, 00:22:04,VALID,916.457,VALID,0,VALID,96.6802,VALID,0,VALID,19.6458,VALID,34,VALID,0,
2013-11-23, 00:23:04,VALID,916.453,VALID,0,VALID,96.6802,VALID,0,VALID,19.5873,VALID,34,VALID,0,
2013-11-23, 00:24:04,VALID,916.423,VALID,0,VALID,96.642,VALID,0,VALID,19.5678,VALID,34,VALID,0,
2013-11-23, 00:25:04,VALID,916.463,VALID,0,VALID,96.642,VALID,0,VALID,19.5288,VALID,34,VALID,0,
2013-11-23, 00:26:04,VALID,916.473,VALID,0,VALID,96.6268,VALID,0,VALID,19.5093,VALID,34,VALID,0,
2013-11-23, 00:27:04,VALID,916.496,VALID,0,VALID,96.6268,VALID,0,VALID,19.4898,VALID,34,VALID,0,
2013-11-23, 00:28:04,VALID,916.484,VALID,0,VALID,96.6192,VALID,0,VALID,19.4703,VALID,34,VALID,0,
2013-11-23, 00:29:04,VALID,916.491,VALID,0,VALID,96.6192,VALID,0,VALID,19.4703,VALID,34,VALID,0,
2013-11-23, 00:30:04,VALID,916.5,VALID,0,VALID,96.6039,VALID,0,VALID,19.4298,VALID,34,VALID,0,
2013-11-23, 00:31:04,VALID,916.492,VALID,0,VALID,96.6192,VALID,0,VALID,19.4313,VALID,34,VALID,0,
2013-11-23, 00:32:04,VALID,916.451,VALID,0,VALID,96.5963,VALID,0,VALID,19.4118,VALID,34,VALID,0,
2013-11-23, 00:33:04,VALID,916.399,VALID,0,VALID,96.6192,VALID,0,VALID,19.4118,VALID,34,VALID,0,
2013-11-23, 00:34:04,VALID,916.352,VALID,0,VALID,96.6192,VALID,0,VALID,19.4118,VALID,34,VALID,0,
2013-11-23, 00:35:04,VALID,916.286,VALID,0,VALID,96.6192,VALID,0,VALID,19.3923,VALID,34,VALID,0,
2013-11-23, 00:36:04,VALID,916.218,VALID,0,VALID,96.642,VALID,0,VALID,19.3923,VALID,34,VALID,0,
2013-11-23, 00:37:04,VALID,916.188,VALID,0,VALID,96.6497,VALID,0,VALID,19.4118,VALID,34,VALID,0,
2013-11-23, 00:38:04,VALID,916.165,VALID,0,VALID,96.6573,VALID,0,VALID,19.4118,VALID,34,VALID,0,
2013-11-23, 00:39:04,VALID,916.197,VALID,0,VALID,96.6802,VALID,0,VALID,19.4118,VALID,34,VALID,0,
2013-11-23, 00:40:04,VALID,916.157,VALID,0,VALID,96.6802,VALID,0,VALID,19.3923,VALID,34,VALID,0,
2013-11-23, 00:41:04,VALID,916.123,VALID,0,VALID,96.6878,VALID,0,VALID,19.3923,VALID,34,VALID,0,
2013-11-23, 00:42:04,VALID,916.129,VALID,0,VALID,96.6954,VALID,0,VALID,19.4118,VALID,34,VALID,0,
2013-11-23, 00:43:04,VALID,916.115,VALID,0,VALID,96.6954,VALID,0,VALID,19.3728,VALID,34,VALID,0,
2013-11-23, 00:44:04,VALID,916.143,VALID,0,VALID,96.7259,VALID,0,VALID,19.3923,VALID,34,VALID,0,
2013-11-23, 00:45:04,VALID,916.14,VALID,0,VALID,96.7411,VALID,0,VALID,19.3923,VALID,34,VALID,0,
2013-11-23, 00:46:04,VALID,916.144,VALID,0,VALID,96.7488,VALID,0,VALID,19.3923,VALID,34,VALID,0,
2013-11-23, 00:47:04,VALID,916.158,VALID,0,VALID,96.7564,VALID,0,VALID,19.3713,VALID,34,VALID,0,
2013-11-23, 00:48:04,VALID,916.144,VALID,0,VALID,96.7793,VALID,0,VALID,19.3923,VALID,34,VALID,0,
2013-11-23, 00:49:04,VALID,916.136,VALID,0,VALID,96.7793,VALID,0,VALID,19.4327,VALID,34,VALID,0,
2013-11-23, 00:50:04,VALID,916.156,VALID,0,VALID,96.764,VALID,0,VALID,19.3923,VALID,34,VALID,0,
2013-11-23, 00:51:04,VALID,916.108,VALID,0,VALID,96.7945,VALID,0,VALID,19.4118,VALID,34,VALID,0,
2013-11-23, 00:52:04,VALID,916.119,VALID,0,VALID,96.8021,VALID,0,VALID,19.4118,VALID,34,VALID,0,
2013-11-23, 00:53:04,VALID,916.085,VALID,0,VALID,96.8098,VALID,0,VALID,19.3923,VALID,30,VALID,0,
2013-11-23, 00:54:04,VALID,916.042,VALID,0,VALID,96.8098,VALID,0,VALID,19.3923,VALID,30,VALID,0,
2013-11-23, 00:55:04,VALID,915.994,VALID,0,VALID,96.8098,VALID,0,VALID,19.3923,VALID,33,VALID,0,
2013-11-23, 00:56:04,VALID,916,VALID,0,VALID,96.8098,VALID,0,VALID,19.3923,VALID,33,VALID,0,
2013-11-23, 00:57:04,VALID,916.014,VALID,0,VALID,96.8098,VALID,0,VALID,19.3923,VALID,33,VALID,0,
2013-11-23, 00:58:04,VALID,915.98,VALID,0,VALID,96.8326,VALID,0,VALID,19.3923,VALID,33,VALID,0,
2013-11-23, 00:59:04,VALID,915.981,VALID,0,VALID,96.8174,VALID,0,VALID,19.4118,VALID,30,VALID,0,
2013-11-23, 01:00:04,VALID,915.991,VALID,0,VALID,96.8174,VALID,0,VALID,19.4118,VALID,18,VALID,0,
2013-11-23, 01:01:04,VALID,915.997,VALID,0,VALID,96.8098,VALID,0,VALID,19.4313,VALID,304,VALID,0,
2013-11-23, 01:02:04,VALID,916.007,VALID,0,VALID,96.8021,VALID,0,VALID,19.4508,VALID,304,VALID,0,
2013-11-23, 01:03:04,VALID,916.033,VALID,0,VALID,96.8021,VALID,0,VALID,19.4313,VALID,304,VALID,0,
2013-11-23, 01:04:04,VALID,916.052,VALID,0,VALID,96.7945,VALID,0,VALID,19.4313,VALID,304,VALID,0,
2013-11-23, 01:05:04,VALID,916.072,VALID,0,VALID,96.8098,VALID,0,VALID,19.4523,VALID,304,VALID,0,
2013-11-23, 01:06:04,VALID,916.08,VALID,0,VALID,96.8098,VALID,0,VALID,19.4718,VALID,304,VALID,0,
2013-11-23, 01:07:04,VALID,916.066,VALID,0,VALID,96.825,VALID,0,VALID,19.4508,VALID,304,VALID,0,
2013-11-23, 01:08:04,VALID,916.09,VALID,0,VALID,96.8098,VALID,0,VALID,19.4118,VALID,304,VALID,0,
2013-11-23, 01:09:04,VALID,916.084,VALID,0,VALID,96.825,VALID,0,VALID,19.4118,VALID,304,VALID,0,
2013-11-23, 01:10:04,VALID,916.079,VALID,0,VALID,96.8326,VALID,0,VALID,19.4118,VALID,304,VALID,0,
2013-11-23, 01:11:04,VALID,916.085,VALID,0,VALID,96.8403,VALID,0,VALID,19.4313,VALID,304,VALID,0,
2013-11-23, 01:12:04,VALID,916.088,VALID,0,VALID,96.825,VALID,0,VALID,19.4508,VALID,304,VALID,0,
2013-11-23, 01:13:04,VALID,916.118,VALID,0,VALID,96.8403,VALID,0,VALID,19.4718,VALID,304,VALID,0,
2013-11-23, 01:14:04,VALID,916.106,VALID,0,VALID,96.8555,VALID,0,VALID,19.4703,VALID,304,VALID,0,
2013-11-23, 01:15:04,VALID,916.124,VALID,0,VALID,96.8631,VALID,0,VALID,19.4898,VALID,304,VALID,0,
2013-11-23, 01:16:04,VALID,916.146,VALID,0,VALID,96.8631,VALID,0,VALID,19.4493,VALID,304,VALID,0,
2013-11-23, 01:17:04,VALID,916.127,VALID,0,VALID,96.8784,VALID,0,VALID,19.4298,VALID,304,VALID,0,
2013-11-23, 01:18:04,VALID,916.174,VALID,0,VALID,96.8707,VALID,0.107441,VALID,19.4493,VALID,324,VALID,0,
2013-11-23, 01:19:04,VALID,916.204,VALID,0,VALID,96.8479,VALID,0,VALID,19.4883,VALID,14,VALID,0,
2013-11-23, 01:20:04,VALID,916.234,VALID,0,VALID,96.8403,VALID,0,VALID,19.4493,INVALID,360,VALID,0,
2013-11-23, 01:21:04,VALID,916.268,VALID,0,VALID,96.8403,VALID,0,VALID,19.4493,VALID,340,VALID,0,
2013-11-23, 01:22:04,VALID,916.268,VALID,0,VALID,96.8479,VALID,0.107441,VALID,19.4703,VALID,340,VALID,0,
2013-11-23, 01:23:04,VALID,916.297,VALID,0,VALID,96.8403,VALID,0,VALID,19.4493,VALID,340,VALID,0,
2013-11-23, 01:24:04,VALID,916.283,VALID,0,VALID,96.8631,VALID,0,VALID,19.4688,VALID,340,VALID,0,
2013-11-23, 01:25:04,VALID,916.27,VALID,0,VALID,96.8479,VALID,0,VALID,19.4883,VALID,342,VALID,0,
2013-11-23, 01:26:04,VALID,916.236,VALID,0,VALID,96.8707,VALID,0,VALID,19.4883,VALID,343,VALID,0,
2013-11-23, 01:27:04,VALID,916.249,VALID,0,VALID,96.8555,VALID,0,VALID,19.4688,VALID,10,VALID,0,
2013-11-23, 01:28:04,VALID,916.227,VALID,0,VALID,96.8326,VALID,0.107441,VALID,19.4298,VALID,20,VALID,0,
2013-11-23, 01:29:04,VALID,916.197,VALID,0,VALID,96.8479,VALID,0,VALID,19.4103,VALID,22,VALID,0,
2013-11-23, 01:30:04,VALID,916.197,VALID,0,VALID,96.8631,VALID,0.107441,VALID,19.4103,VALID,8,VALID,0,
2013-11-23, 01:31:04,VALID,916.214,VALID,0,VALID,96.8479,VALID,0,VALID,19.3923,VALID,8,VALID,0,
2013-11-23, 01:32:04,VALID,916.183,VALID,0,VALID,96.8784,VALID,0,VALID,19.3923,VALID,327,VALID,0,
2013-11-23, 01:33:04,VALID,916.199,VALID,0,VALID,96.886,VALID,0,VALID,19.3923,VALID,327,VALID,0,
2013-11-23, 01:34:04,VALID,916.162,VALID,0,VALID,96.8936,VALID,0,VALID,19.3908,VALID,354,VALID,0,
2013-11-23, 01:35:04,VALID,916.16,VALID,0,VALID,96.9012,VALID,0,VALID,19.3923,VALID,2,VALID,0,
2013-11-23, 01:36:04,VALID,916.16,VALID,0,VALID,96.9089,VALID,0,VALID,19.4327,VALID,2,VALID,0,
2013-11-23, 01:37:04,VALID,916.174,VALID,0,VALID,96.9317,VALID,0,VALID,19.4313,VALID,345,VALID,0,
2013-11-23, 01:38:04,VALID,916.157,VALID,0,VALID,96.9394,VALID,0,VALID,19.4313,VALID,345,VALID,0,
2013-11-23, 01:39:04,VALID,916.127,VALID,0,VALID,96.9165,VALID,0,VALID,19.4313,VALID,345,VALID,0,
2013-11-23, 01:40:04,VALID,916.1,VALID,0,VALID,96.947,VALID,0,VALID,19.4718,VALID,345,VALID,0,
2013-11-23, 01:41:04,VALID,916.093,VALID,0,VALID,96.9622,VALID,0,VALID,19.4898,VALID,345,VALID,0,
2013-11-23, 01:42:04,VALID,916.077,VALID,0,VALID,96.9394,VALID,0,VALID,19.4313,VALID,347,VALID,0,
2013-11-23, 01:43:04,VALID,916.071,VALID,0,VALID,96.947,VALID,0,VALID,19.4118,VALID,348,VALID,0,
2013-11-23, 01:44:04,VALID,916.082,VALID,0,VALID,96.947,VALID,0,VALID,19.4313,VALID,348,VALID,0,
2013-11-23, 01:45:04,VALID,916.114,VALID,0,VALID,96.9546,VALID,0,VALID,19.4313,VALID,290,VALID,0,
2013-11-23, 01:46:04,VALID,916.107,VALID,0,VALID,96.9546,VALID,0,VALID,19.4508,VALID,290,VALID,0,
2013-11-23, 01:47:04,VALID,916.126,VALID,0,VALID,96.9622,VALID,0,VALID,19.4313,VALID,289,VALID,0,
2013-11-23, 01:48:04,VALID,916.095,VALID,0,VALID,96.9622,VALID,0,VALID,19.4118,VALID,289,VALID,0,
2013-11-23, 01:49:04,VALID,916.032,VALID,0,VALID,96.9546,VALID,0,VALID,19.4508,VALID,289,VALID,0,
2013-11-23, 01:50:04,VALID,916.03,VALID,0,VALID,96.9546,VALID,0,VALID,19.4508,VALID,292,VALID,0,
2013-11-23, 01:51:04,VALID,916.039,VALID,0,VALID,96.947,VALID,0,VALID,19.4508,VALID,318,VALID,0,
2013-11-23, 01:52:04,VALID,916.043,VALID,0,VALID,96.9622,VALID,0,VALID,19.4508,VALID,322,VALID,0,
2013-11-23, 01:53:04,VALID,916.041,VALID,0,VALID,96.9546,VALID,0,VALID,19.4313,VALID,304,VALID,0,
2013-11-23, 01:54:04,VALID,916.038,VALID,0,VALID,96.947,VALID,0,VALID,19.4508,VALID,267,VALID,0,
2013-11-23, 01:55:04,VALID,916.079,VALID,0,VALID,96.9622,VALID,0,VALID,19.4508,VALID,267,VALID,0,
2013-11-23, 01:56:04,VALID,916.075,VALID,0,VALID,96.9546,VALID,0,VALID,19.4313,VALID,267,VALID,0,
2013-11-23, 01:57:04,VALID,916.056,VALID,0,VALID,96.9546,VALID,0,VALID,19.4313,VALID,267,VALID,0,
2013-11-23, 01:58:04,VALID,916.033,VALID,0,VALID,96.9698,VALID,0,VALID,19.4313,VALID,267,VALID,0,
2013-11-23, 01:59:04,VALID,916.023,VALID,0.2,VALID,96.9698,VALID,0,VALID,19.4298,VALID,271,VALID,0,
2013-11-23, 02:00:04,VALID,915.991,VALID,0,VALID,96.9698,VALID,0,VALID,19.4898,VALID,289,VALID,0,
2013-11-23, 02:01:04,VALID,915.955,VALID,0.2,VALID,96.9622,VALID,0,VALID,19.5483,VALID,356,VALID,0,
2013-11-23, 02:02:04,VALID,915.925,VALID,0.2,VALID,96.9698,VALID,0,VALID,19.5288,VALID,358,VALID,0,
2013-11-23, 02:03:04,VALID,915.943,VALID,0,VALID,96.9851,VALID,0,VALID,19.5093,VALID,351,VALID,0,
2013-11-23, 02:04:04,VALID,915.94,VALID,0,VALID,96.9775,VALID,0,VALID,19.5093,VALID,351,VALID,0,
2013-11-23, 02:05:04,VALID,915.895,VALID,0.2,VALID,96.9775,VALID,0,VALID,19.4898,VALID,351,VALID,0,
2013-11-23, 02:06:04,VALID,915.934,VALID,0,VALID,96.9775,VALID,0,VALID,19.4898,VALID,351,VALID,0,
2013-11-23, 02:07:04,VALID,915.928,VALID,0,VALID,96.9851,VALID,0,VALID,19.5093,VALID,351,VALID,0,
2013-11-23, 02:08:04,VALID,915.925,VALID,0,VALID,96.9698,VALID,0,VALID,19.4688,VALID,351,VALID,0,
2013-11-23, 02:09:04,VALID,915.923,VALID,0,VALID,96.9927,VALID,0,VALID,19.4913,VALID,351,VALID,0,
2013-11-23, 02:10:04,VALID,915.936,VALID,0,VALID,96.9927,VALID,0,VALID,19.4703,VALID,1,VALID,0,
2013-11-23, 02:11:04,VALID,915.938,VALID,0,VALID,96.9851,VALID,0,VALID,19.4703,VALID,1,VALID,0,
2013-11-23, 02:12:04,VALID,915.967,VALID,0,VALID,96.9851,VALID,0,VALID,19.4703,VALID,1,VALID,0,
2013-11-23, 02:13:04,VALID,915.997,VALID,0,VALID,96.9775,VALID,0,VALID,19.4898,VALID,1,VALID,0,
2013-11-23, 02:14:04,VALID,915.975,VALID,0,VALID,96.9927,VALID,0,VALID,19.5303,VALID,1,VALID,0,
2013-11-23, 02:15:04,VALID,915.955,VALID,0,VALID,96.9775,VALID,0,VALID,19.4898,VALID,359,VALID,0,
2013-11-23, 02:16:04,VALID,915.936,VALID,0,VALID,96.9698,VALID,0,VALID,19.5093,VALID,359,VALID,0,
2013-11-23, 02:17:04,VALID,915.946,VALID,0,VALID,96.9698,VALID,0,VALID,19.4898,VALID,359,VALID,0,
2013-11-23, 02:18:04,VALID,915.954,VALID,0,VALID,96.9698,VALID,0,VALID,19.5093,VALID,359,VALID,0,
2013-11-23, 02:19:04,VALID,915.936,VALID,0,VALID,96.9622,VALID,0,VALID,19.5093,VALID,359,VALID,0,
2013-11-23, 02:20:04,VALID,915.922,VALID,0,VALID,96.947,VALID,0,VALID,19.4898,VALID,356,VALID,0,
2013-11-23, 02:21:04,VALID,915.926,VALID,0,VALID,96.947,VALID,0,VALID,19.4898,VALID,337,VALID,0,
2013-11-23, 02:22:04,VALID,915.899,VALID,0,VALID,96.9089,VALID,0,VALID,19.4703,VALID,338,VALID,0,
2013-11-23, 02:23:04,VALID,915.897,VALID,0,VALID,96.9317,VALID,0,VALID,19.5093,VALID,6,VALID,0,
2013-11-23, 02:24:04,VALID,915.88,VALID,0,VALID,96.9165,VALID,0,VALID,19.5093,VALID,6,VALID,0,
2013-11-23, 02:25:04,VALID,915.85,VALID,0,VALID,96.8936,VALID,0,VALID,19.4898,VALID,6,VALID,0,
2013-11-23, 02:26:04,VALID,915.841,VALID,0,VALID,96.9012,VALID,0,VALID,19.4898,VALID,5,VALID,0,
2013-11-23, 02:27:04,VALID,915.872,VALID,0,VALID,96.8631,VALID,0,VALID,19.4703,VALID,5,VALID,0,
2013-11-23, 02:28:04,VALID,915.901,VALID,0,VALID,96.8784,VALID,0,VALID,19.4703,VALID,6,VALID,0,
2013-11-23, 02:29:04,VALID,915.858,VALID,0,VALID,96.8784,VALID,0,VALID,19.4898,VALID,282,VALID,0,
2013-11-23, 02:30:04,VALID,915.84,VALID,0,VALID,96.8784,VALID,0,VALID,19.5093,VALID,282,VALID,0,
2013-11-23, 02:31:04,VALID,915.794,VALID,0,VALID,96.8707,VALID,0.107441,VALID,19.4883,VALID,282,VALID,0,
2013-11-23, 02:32:04,VALID,915.771,VALID,0,VALID,96.8784,VALID,0.107441,VALID,19.4688,VALID,18,VALID,0,
2013-11-23, 02:33:04,VALID,915.784,VALID,0,VALID,96.8631,VALID,0.107441,VALID,19.4283,VALID,18,VALID,0,
2013-11-23, 02:34:04,VALID,915.737,VALID,0,VALID,96.886,VALID,0,VALID,19.4298,VALID,18,VALID,0,
2013-11-23, 02:35:04,VALID,915.772,VALID,0,VALID,96.8631,VALID,0.107441,VALID,19.3893,VALID,65,VALID,0,
2013-11-23, 02:36:04,VALID,915.785,VALID,0.2,VALID,96.8707,VALID,0.107441,VALID,19.3908,VALID,69,VALID,0,
2013-11-23, 02:37:04,VALID,915.805,VALID,0,VALID,96.8784,VALID,0.107441,VALID,19.3713,VALID,70,VALID,0,
2013-11-23, 02:38:04,VALID,915.842,VALID,0,VALID,96.8784,VALID,0.107441,VALID,19.3908,VALID,69,VALID,0,
2013-11-23, 02:39:04,VALID,915.826,VALID,0,VALID,96.8784,VALID,0.107441,VALID,19.4298,VALID,70,VALID,0,
2013-11-23, 02:40:04,VALID,915.802,VALID,0,VALID,96.886,VALID,0,VALID,19.4493,VALID,65,VALID,0,
2013-11-23, 02:41:04,VALID,915.812,VALID,0,VALID,96.8936,VALID,0.107441,VALID,19.4298,VALID,64,VALID,0,
2013-11-23, 02:42:04,VALID,915.788,VALID,0,VALID,96.9012,VALID,0.107441,VALID,19.4493,VALID,36,VALID,0,
2013-11-23, 02:43:04,VALID,915.789,VALID,0,VALID,96.8936,VALID,0,VALID,19.4688,VALID,25,VALID,0,
2013-11-23, 02:44:04,VALID,915.78,VALID,0,VALID,96.886,VALID,0.107441,VALID,19.4298,VALID,25,VALID,0,
2013-11-23, 02:45:04,VALID,915.787,VALID,0,VALID,96.886,VALID,0.107441,VALID,19.4298,VALID,25,VALID,0,
2013-11-23, 02:46:04,VALID,915.774,VALID,0,VALID,96.8707,VALID,0,VALID,19.4508,VALID,25,VALID,0,
2013-11-23, 02:47:04,VALID,915.759,VALID,0,VALID,96.8707,VALID,0,VALID,19.4313,VALID,26,VALID,0,
2013-11-23, 02:48:04,VALID,915.724,VALID,0,VALID,96.8631,VALID,0,VALID,19.4313,VALID,25,VALID,0,
2013-11-23, 02:49:04,VALID,915.689,VALID,0,VALID,96.8479,VALID,0,VALID,19.4118,VALID,25,VALID,0,
2013-11-23, 02:50:04,VALID,915.691,VALID,0,VALID,96.8403,VALID,0,VALID,19.4118,VALID,26,VALID,0,
2013-11-23, 02:51:04,VALID,915.681,VALID,0,VALID,96.8326,VALID,0,VALID,19.4118,VALID,31,VALID,0,
2013-11-23, 02:52:04,VALID,915.667,VALID,0,VALID,96.8326,VALID,0,VALID,19.3923,VALID,31,VALID,0,
2013-11-23, 02:53:04,VALID,915.683,VALID,0,VALID,96.8098,VALID,0,VALID,19.4118,VALID,31,VALID,0,
2013-11-23, 02:54:04,VALID,915.667,VALID,0,VALID,96.8098,VALID,0,VALID,19.4313,VALID,31,VALID,0,
2013-11-23, 02:55:04,VALID,915.686,VALID,0,VALID,96.825,VALID,0,VALID,19.4313,VALID,30,VALID,0,
2013-11-23, 02:56:04,VALID,915.641,VALID,0,VALID,96.8174,VALID,0,VALID,19.4313,VALID,30,VALID,0,
2013-11-23, 02:57:04,VALID,915.606,VALID,0,VALID,96.8174,VALID,0,VALID,19.4718,VALID,30,VALID,0,
2013-11-23, 02:58:04,VALID,915.557,VALID,0,VALID,96.825,VALID,0,VALID,19.4508,VALID,30,VALID,0,
2013-11-23, 02:59:04,VALID,915.525,VALID,0,VALID,96.825,VALID,0,VALID,19.4703,VALID,30,VALID,0,
2013-11-23, 03:00:04,VALID,915.515,VALID,0,VALID,96.7945,VALID,0,VALID,19.4703,VALID,30,VALID,0,
2013-11-23, 03:01:04,VALID,915.461,VALID,0,VALID,96.8021,VALID,0,VALID,19.4883,VALID,30,VALID,0,
2013-11-23, 03:02:04,VALID,915.468,VALID,0,VALID,96.8098,VALID,0.107441,VALID,19.5078,VALID,30,VALID,0,
2013-11-23, 03:03:04,VALID,915.503,VALID,0,VALID,96.8098,VALID,0.107441,VALID,19.5483,VALID,30,VALID,0,
2013-11-23, 03:04:04,VALID,915.482,VALID,0,VALID,96.8326,VALID,0,VALID,19.5078,VALID,30,VALID,0,
2013-11-23, 03:05:04,VALID,915.48,VALID,0,VALID,96.8098,VALID,0.107441,VALID,19.4898,VALID,30,VALID,0,
2013-11-23, 03:06:04,VALID,915.461,VALID,0,VALID,96.7716,VALID,0.107441,VALID,19.4478,VALID,30,VALID,0,
2013-11-23, 03:07:04,VALID,915.474,VALID,0,VALID,96.7716,VALID,0.107441,VALID,19.4493,VALID,30,VALID,0,
2013-11-23, 03:08:04,VALID,915.488,VALID,0,VALID,96.7716,VALID,0,VALID,19.4298,VALID,30,VALID,0,
2013-11-23, 03:09:04,VALID,915.454,VALID,0,VALID,96.764,VALID,0.107441,VALID,19.4103,VALID,30,VALID,0,
2013-11-23, 03:10:04,VALID,915.488,VALID,0,VALID,96.764,VALID,0,VALID,19.4298,VALID,30,VALID,0,
2013-11-23, 03:11:04,VALID,915.479,VALID,0,VALID,96.764,VALID,0,VALID,19.4103,VALID,30,VALID,0,
2013-11-23, 03:12:04,VALID,915.42,VALID,0,VALID,96.7793,VALID,0.107441,VALID,19.3908,VALID,30,VALID,0,
2013-11-23, 03:13:04,VALID,915.421,VALID,0,VALID,96.7945,VALID,0,VALID,19.3908,VALID,30,VALID,0,
2013-11-23, 03:14:04,VALID,915.413,VALID,0,VALID,96.8021,VALID,0,VALID,19.3908,VALID,28,VALID,0,
2013-11-23, 03:15:04,VALID,915.375,VALID,0,VALID,96.8021,VALID,0.107441,VALID,19.4103,VALID,26,VALID,0,
2013-11-23, 03:16:04,VALID,915.403,VALID,0,VALID,96.8174,VALID,0,VALID,19.4103,VALID,26,VALID,0,
2013-11-23, 03:17:04,VALID,915.449,VALID,0,VALID,96.825,VALID,0,VALID,19.3908,VALID,26,VALID,0,
2013-11-23, 03:18:04,VALID,915.45,VALID,0,VALID,96.8098,VALID,0.107441,VALID,19.3908,VALID,26,VALID,0,
2013-11-23, 03:19:04,VALID,915.437,VALID,0,VALID,96.8326,VALID,0,VALID,19.3518,VALID,26,VALID,0,
2013-11-23, 03:20:04,VALID,915.416,VALID,0,VALID,96.825,VALID,0,VALID,19.3728,VALID,26,VALID,0,
2013-11-23, 03:21:04,VALID,915.387,VALID,0,VALID,96.8326,VALID,0.107441,VALID,19.3923,VALID,26,VALID,0,
2013-11-23, 03:22:04,VALID,915.359,VALID,0,VALID,96.8479,VALID,0,VALID,19.4118,VALID,30,VALID,0,
2013-11-23, 03:23:04,VALID,915.383,VALID,0,VALID,96.8707,VALID,0,VALID,19.4118,VALID,29,VALID,0,
2013-11-23, 03:24:04,VALID,915.379,VALID,0,VALID,96.8707,VALID,0.107441,VALID,19.3713,VALID,31,VALID,0,
2013-11-23, 03:25:04,VALID,915.375,VALID,0,VALID,96.8784,VALID,0,VALID,19.4313,VALID,31,VALID,0,
2013-11-23, 03:26:04,VALID,915.397,VALID,0,VALID,96.8784,VALID,0,VALID,19.4313,VALID,31,VALID,0,
2013-11-23, 03:27:04,VALID,915.407,VALID,0,VALID,96.8936,VALID,0,VALID,19.3908,VALID,31,VALID,0,
2013-11-23, 03:28:04,VALID,915.425,VALID,0,VALID,96.8784,VALID,0,VALID,19.4313,VALID,31,VALID,0,
2013-11-23, 03:29:04,VALID,915.412,VALID,0,VALID,96.9089,VALID,0.107441,VALID,19.4298,VALID,31,VALID,0,
2013-11-23, 03:30:04,VALID,915.403,VALID,0,VALID,96.8936,VALID,0,VALID,19.4298,VALID,31,VALID,0,
2013-11-23, 03:31:04,VALID,915.412,VALID,0,VALID,96.886,VALID,0,VALID,19.4523,VALID,31,VALID,0,
2013-11-23, 03:32:04,VALID,915.413,VALID,0,VALID,96.8936,VALID,0,VALID,19.4327,VALID,31,VALID,0,
2013-11-23, 03:33:04,VALID,915.39,VALID,0,VALID,96.886,VALID,0,VALID,19.4327,VALID,31,VALID,0,
2013-11-23, 03:34:04,VALID,915.393,VALID,0,VALID,96.886,VALID,0,VALID,19.4132,VALID,31,VALID,0,
2013-11-23, 03:35:04,VALID,915.384,VALID,0,VALID,96.886,VALID,0,VALID,19.4327,VALID,31,VALID,0,
2013-11-23, 03:36:04,VALID,915.385,VALID,0,VALID,96.8707,VALID,0,VALID,19.4118,VALID,31,VALID,0,
2013-11-23, 03:37:04,VALID,915.366,VALID,0,VALID,96.8784,VALID,0,VALID,19.4313,VALID,31,VALID,0,
2013-11-23, 03:38:04,VALID,915.338,VALID,0,VALID,96.886,VALID,0,VALID,19.4523,VALID,31,VALID,0,
2013-11-23, 03:39:04,VALID,915.349,VALID,0,VALID,96.8631,VALID,0,VALID,19.4508,VALID,31,VALID,0,
2013-11-23, 03:40:04,VALID,915.361,VALID,0,VALID,96.8707,VALID,0,VALID,19.4118,VALID,31,VALID,0,
2013-11-23, 03:41:04,VALID,915.346,VALID,0,VALID,96.8707,VALID,0,VALID,19.4118,VALID,71,VALID,0,
2013-11-23, 03:42:04,VALID,915.36,VALID,0,VALID,96.8631,VALID,0,VALID,19.4118,VALID,71,VALID,0,
2013-11-23, 03:43:04,VALID,915.387,VALID,0,VALID,96.8326,VALID,0,VALID,19.3923,VALID,71,VALID,0,
2013-11-23, 03:44:04,VALID,915.405,VALID,0,VALID,96.8403,VALID,0,VALID,19.3937,VALID,71,VALID,0,
2013-11-23, 03:45:04,VALID,915.377,VALID,0,VALID,96.825,VALID,0,VALID,19.3728,VALID,70,VALID,0,
2013-11-23, 03:46:04,VALID,915.361,VALID,0,VALID,96.8403,VALID,0,VALID,19.3923,VALID,70,VALID,0,
2013-11-23, 03:47:04,VALID,915.367,VALID,0,VALID,96.8174,VALID,0,VALID,19.3728,VALID,70,VALID,0,
2013-11-23, 03:48:04,VALID,915.338,VALID,0,VALID,96.825,VALID,0,VALID,19.3728,VALID,31,VALID,0,
2013-11-23, 03:49:04,VALID,915.323,VALID,0,VALID,96.8403,VALID,0,VALID,19.3728,VALID,31,VALID,0,
2013-11-23, 03:50:04,VALID,915.308,VALID,0,VALID,96.825,VALID,0,VALID,19.4118,VALID,31,VALID,0,
2013-11-23, 03:51:04,VALID,915.32,VALID,0,VALID,96.8174,VALID,0,VALID,19.4132,VALID,31,VALID,0,
2013-11-23, 03:52:04,VALID,915.316,VALID,0,VALID,96.8021,VALID,0,VALID,19.4313,VALID,31,VALID,0,
2013-11-23, 03:53:04,VALID,915.299,VALID,0,VALID,96.7945,VALID,0,VALID,19.4703,VALID,31,VALID,0,
2013-11-23, 03:54:04,VALID,915.341,VALID,0,VALID,96.7716,VALID,0,VALID,19.4703,VALID,31,VALID,0,
2013-11-23, 03:55:04,VALID,915.33,VALID,0,VALID,96.7488,VALID,0,VALID,19.5093,VALID,31,VALID,0,
2013-11-23, 03:56:04,VALID,915.33,VALID,0,VALID,96.703,VALID,0,VALID,19.5483,VALID,31,VALID,0,
2013-11-23, 03:57:04,VALID,915.326,VALID,0,VALID,96.6802,VALID,0,VALID,19.5483,VALID,31,VALID,0,
2013-11-23, 03:58:04,VALID,915.355,VALID,0,VALID,96.6725,VALID,0,VALID,19.5873,VALID,31,VALID,0,
2013-11-23, 03:59:04,VALID,915.335,VALID,0,VALID,96.642,VALID,0,VALID,19.6068,VALID,31,VALID,0,